HAZ4125 ZYTX-ZSQD

Flight info

Callsign HAZ4125
Flight time 1h 4m
Altitude 36100
Route TOS72D TOSID A588 UDETI W106 MAKNO W5 HCH W651 NOKUD
Aircraft B772/H-SDE2E3FGHIJ5LORVWXY/LB1D1

Departure

Time 2026-04-17 02:08
Airport Shenyang Taoxian International Airport (ZYTX)

Arrival

Time 2026-04-17 03:12
Airport Qingdao Jiaodong International Airport (ZSQD)
Time Latitude Longitude Altitude Speed Heading
2026-04-17 01:57 41.63976 123.48989 213 ft 0 kts 135°
2026-04-17 02:03 41.63968 123.49000 213 ft 3 kts 135°
2026-04-17 02:03 41.63943 123.49038 213 ft 6 kts 124°
2026-04-17 02:04 41.63950 123.49104 213 ft 9 kts 60°
2026-04-17 02:04 41.63997 123.49186 213 ft 12 kts 50°
2026-04-17 02:04 41.64073 123.49255 213 ft 14 kts
2026-04-17 02:04 41.64169 123.49186 213 ft 17 kts 320°
2026-04-17 02:05 41.64247 123.49107 213 ft 13 kts
2026-04-17 02:05 41.64327 123.49195 213 ft 16 kts 49°
2026-04-17 02:05 41.64411 123.49316 213 ft 18 kts 46°
2026-04-17 02:05 41.64504 123.49454 213 ft 20 kts 49°
2026-04-17 02:06 41.64606 123.49604 213 ft 22 kts 45°
2026-04-17 02:06 41.64716 123.49767 213 ft 24 kts 49°
2026-04-17 02:06 41.64813 123.49891 213 ft 13 kts 11°
2026-04-17 02:06 41.64896 123.49835 213 ft 15 kts 318°
2026-04-17 02:07 41.64910 123.49716 213 ft 16 kts 228°
2026-04-17 02:07 41.64798 123.49551 213 ft 49 kts 227°
2026-04-17 02:07 41.64383 123.48926 213 ft 127 kts 228°
2026-04-17 02:07 41.63683 123.47831 507 ft 162 kts 229°
2026-04-17 02:08 41.62980 123.46737 1382 ft 160 kts 225°
2026-04-17 02:08 41.62225 123.45645 1944 ft 169 kts 226°
2026-04-17 02:08 41.61399 123.44408 2323 ft 188 kts 227°
2026-04-17 02:08 41.60479 123.43016 2732 ft 207 kts 227°
2026-04-17 02:09 41.59477 123.41504 3221 ft 225 kts 227°
2026-04-17 02:09 41.58418 123.39908 3807 ft 238 kts 228°
2026-04-17 02:09 41.57236 123.38302 4520 ft 246 kts 217°
2026-04-17 02:09 41.55678 123.37347 5308 ft 252 kts 195°
2026-04-17 02:10 41.53872 123.37150 5989 ft 264 kts 185°
2026-04-17 02:10 41.52004 123.37155 6664 ft 272 kts 184°
2026-04-17 02:10 41.50107 123.37167 7393 ft 277 kts 184°
2026-04-17 02:10 41.48135 123.37168 8070 ft 284 kts 184°
2026-04-17 02:11 41.46155 123.37166 8745 ft 290 kts 184°
2026-04-17 02:11 41.44118 123.37163 9438 ft 296 kts 184°
2026-04-17 02:11 41.42044 123.37160 10122 ft 301 kts 184°
2026-04-17 02:11 41.39859 123.37313 10528 ft 320 kts 174°
2026-04-17 02:12 41.37670 123.38135 10868 ft 340 kts 159°
2026-04-17 02:12 41.35479 123.39575 11215 ft 358 kts 154°
2026-04-17 02:12 41.33208 123.41167 11614 ft 373 kts 154°
2026-04-17 02:12 41.30830 123.42812 12079 ft 386 kts 154°
2026-04-17 02:13 41.28398 123.44480 12762 ft 393 kts 154°
2026-04-17 02:13 41.25923 123.46172 13539 ft 397 kts 154°
2026-04-17 02:13 41.23463 123.47851 14373 ft 399 kts 155°
2026-04-17 02:13 41.20961 123.49554 15173 ft 403 kts 155°
2026-04-17 02:14 41.18421 123.51280 15984 ft 408 kts 155°
2026-04-17 02:14 41.15878 123.53006 16746 ft 412 kts 155°
2026-04-17 02:14 41.13291 123.54759 17530 ft 416 kts 155°
2026-04-17 02:14 41.10691 123.56520 18249 ft 421 kts 155°
2026-04-17 02:15 41.08059 123.58300 18912 ft 427 kts 156°
2026-04-17 02:15 41.05416 123.60086 19654 ft 430 kts 155°
2026-04-17 02:15 41.02758 123.61881 20385 ft 433 kts 155°
2026-04-17 02:15 41.00028 123.63721 21008 ft 438 kts 155°
2026-04-17 02:16 40.97297 123.65561 21622 ft 443 kts 157°
2026-04-17 02:16 40.94463 123.67092 22282 ft 442 kts 167°
2026-04-17 02:16 40.91460 123.67960 22905 ft 441 kts 177°
2026-04-17 02:16 40.88423 123.68130 23487 ft 440 kts 187°
2026-04-17 02:17 40.85492 123.67635 24035 ft 439 kts 197°
2026-04-17 02:17 40.82577 123.66452 24660 ft 436 kts 207°
2026-04-17 02:17 40.79823 123.64748 25305 ft 436 kts 210°
2026-04-17 02:17 40.76935 123.63319 25832 ft 445 kts 201°
2026-04-17 02:18 40.73913 123.62203 26424 ft 448 kts 200°
2026-04-17 02:18 40.70850 123.61108 27001 ft 451 kts 200°
2026-04-17 02:18 40.67793 123.60019 27542 ft 454 kts 200°
2026-04-17 02:18 40.64707 123.58921 28043 ft 458 kts 200°
2026-04-17 02:19 40.61619 123.57824 28510 ft 462 kts 200°
2026-04-17 02:19 40.58538 123.56546 29060 ft 460 kts 206°
2026-04-17 02:19 40.55665 123.54726 29667 ft 457 kts 213°
2026-04-17 02:19 40.52871 123.52706 30402 ft 453 kts 213°
2026-04-17 02:20 40.50096 123.50686 31028 ft 451 kts 214°
2026-04-17 02:20 40.47387 123.48713 31611 ft 449 kts 214°
2026-04-17 02:20 40.44656 123.46725 32148 ft 447 kts 214°
2026-04-17 02:20 40.41964 123.44767 32645 ft 447 kts 214°
2026-04-17 02:21 40.39200 123.42757 33170 ft 445 kts 214°
2026-04-17 02:21 40.36487 123.40788 33724 ft 443 kts 214°
2026-04-17 02:21 40.33810 123.38846 34283 ft 439 kts 214°
2026-04-17 02:21 40.31136 123.36908 34835 ft 435 kts 214°
2026-04-17 02:22 40.28487 123.34989 35337 ft 433 kts 214°
2026-04-17 02:22 40.25848 123.33079 35768 ft 430 kts 214°
2026-04-17 02:22 40.23192 123.31158 36061 ft 432 kts 214°
2026-04-17 02:23 40.17939 123.27364 36091 ft 429 kts 214°
2026-04-17 02:23 40.12670 123.23565 36097 ft 427 kts 214°
2026-04-17 02:24 40.07451 123.19807 36098 ft 426 kts 214°
2026-04-17 02:24 40.02235 123.16043 36102 ft 426 kts 214°
2026-04-17 02:25 39.97028 123.12247 36116 ft 425 kts 215°
2026-04-17 02:25 39.91845 123.08476 36115 ft 427 kts 214°
2026-04-17 02:26 39.86638 123.04696 36116 ft 426 kts 215°
2026-04-17 02:26 39.81438 123.00929 36116 ft 427 kts 214°
2026-04-17 02:27 39.76228 122.97162 36124 ft 425 kts 215°
2026-04-17 02:27 39.71044 122.93419 36115 ft 425 kts 215°
2026-04-17 02:28 39.65825 122.89658 36103 ft 425 kts 214°
2026-04-17 02:28 39.60644 122.85931 36105 ft 423 kts 215°
2026-04-17 02:29 39.55462 122.82209 36108 ft 424 kts 215°
2026-04-17 02:29 39.50272 122.78490 36110 ft 424 kts 215°
2026-04-17 02:30 39.45064 122.74762 36110 ft 424 kts 215°
2026-04-17 02:30 39.39890 122.71066 36116 ft 423 kts 215°
2026-04-17 02:31 39.34732 122.67387 36118 ft 421 kts 215°
2026-04-17 02:31 39.29574 122.63715 36118 ft 422 kts 215°
2026-04-17 02:32 39.24441 122.59965 36124 ft 420 kts 218°
2026-04-17 02:32 39.19485 122.55954 36113 ft 418 kts 218°
2026-04-17 02:33 39.14516 122.51952 36120 ft 418 kts 218°
2026-04-17 02:33 39.09562 122.47985 36120 ft 418 kts 218°
2026-04-17 02:34 39.04603 122.44029 36119 ft 417 kts 218°
2026-04-17 02:34 38.99619 122.40060 36124 ft 418 kts 218°
2026-04-17 02:35 38.94644 122.36109 36122 ft 419 kts 218°
2026-04-17 02:35 38.87106 122.30136 36139 ft 417 kts 217°
2026-04-17 02:36 38.82158 122.26223 36100 ft 417 kts 217°
2026-04-17 02:36 38.77147 122.22268 36132 ft 416 kts 218°
2026-04-17 02:37 38.72480 122.17900 36143 ft 407 kts 229°
2026-04-17 02:37 38.69021 122.12178 36143 ft 406 kts 244°
2026-04-17 02:38 38.66960 122.05552 36146 ft 398 kts 255°
2026-04-17 02:38 38.65389 121.98692 36135 ft 399 kts 255°
2026-04-17 02:39 38.63858 121.91921 36126 ft 399 kts 255°
2026-04-17 02:39 38.62339 121.85172 36121 ft 399 kts 255°
2026-04-17 02:40 38.60799 121.78322 36119 ft 399 kts 255°
2026-04-17 02:40 38.59258 121.71476 36115 ft 399 kts 255°
2026-04-17 02:41 38.57719 121.64656 36113 ft 399 kts 255°
2026-04-17 02:41 38.56186 121.57875 36113 ft 398 kts 255°
2026-04-17 02:42 38.54624 121.50993 36111 ft 398 kts 255°
2026-04-17 02:42 38.53073 121.44173 36109 ft 398 kts 256°
2026-04-17 02:43 38.51527 121.37400 36111 ft 397 kts 255°
2026-04-17 02:43 38.49969 121.30590 36120 ft 397 kts 255°
2026-04-17 02:44 38.48418 121.23831 36119 ft 399 kts 255°
2026-04-17 02:44 38.46816 121.17006 36110 ft 399 kts 252°
2026-04-17 02:45 38.44315 121.10695 36117 ft 401 kts 241°
2026-04-17 02:45 38.41329 121.04632 36114 ft 403 kts 241°
2026-04-17 02:46 38.38319 120.98537 36113 ft 401 kts 241°
2026-04-17 02:46 38.35341 120.92516 36109 ft 402 kts 242°
2026-04-17 02:47 38.32338 120.86456 36108 ft 402 kts 241°
2026-04-17 02:47 38.29328 120.80394 36111 ft 403 kts 241°
2026-04-17 02:48 38.26128 120.74545 35958 ft 402 kts 233°
2026-04-17 02:48 38.24159 120.72025 35617 ft 409 kts 226°
2026-04-17 02:48 38.21880 120.69798 35164 ft 419 kts 219°
2026-04-17 02:49 38.19266 120.67915 34720 ft 429 kts 212°
2026-04-17 02:49 38.16562 120.66273 34390 ft 432 kts 212°
2026-04-17 02:49 38.13819 120.64618 34185 ft 431 kts 212°
2026-04-17 02:49 38.11132 120.62985 33914 ft 431 kts 212°
2026-04-17 02:50 38.08396 120.61311 33560 ft 433 kts 212°
2026-04-17 02:50 38.05673 120.59640 33224 ft 435 kts 212°
2026-04-17 02:50 38.02836 120.58134 32792 ft 444 kts 204°
2026-04-17 02:50 37.99805 120.57162 32414 ft 453 kts 196°
2026-04-17 02:51 37.96599 120.56738 32049 ft 460 kts 190°
2026-04-17 02:51 37.93417 120.56509 31549 ft 457 kts 189°
2026-04-17 02:51 37.90190 120.56284 30751 ft 457 kts 189°
2026-04-17 02:51 37.87083 120.56065 30221 ft 452 kts 189°
2026-04-17 02:52 37.84007 120.55845 29691 ft 446 kts 189°
2026-04-17 02:52 37.78731 120.55462 28774 ft 438 kts 189°
2026-04-17 02:52 37.75714 120.55240 28247 ft 433 kts 189°
2026-04-17 02:53 37.72712 120.55019 27726 ft 428 kts 189°
2026-04-17 02:53 37.69742 120.54798 27200 ft 424 kts 189°
2026-04-17 02:53 37.66794 120.54550 26672 ft 424 kts 193°
2026-04-17 02:53 37.63856 120.53817 26147 ft 431 kts 201°
2026-04-17 02:54 37.60977 120.52755 25568 ft 431 kts 202°
2026-04-17 02:54 37.58101 120.51662 24986 ft 427 kts 202°
2026-04-17 02:54 37.55275 120.50589 24416 ft 422 kts 202°
2026-04-17 02:54 37.52473 120.49526 23870 ft 418 kts 202°
2026-04-17 02:55 37.49655 120.48456 23328 ft 413 kts 202°
2026-04-17 02:55 37.46879 120.47404 22785 ft 409 kts 202°
2026-04-17 02:55 37.44152 120.46370 22242 ft 406 kts 202°
2026-04-17 02:55 37.41431 120.45339 21697 ft 402 kts 202°
2026-04-17 02:56 37.38714 120.44312 21135 ft 399 kts 202°
2026-04-17 02:56 37.36033 120.43298 20587 ft 396 kts 202°
2026-04-17 02:56 37.33370 120.42291 20052 ft 392 kts 202°
2026-04-17 02:56 37.30776 120.41312 19526 ft 389 kts 202°
2026-04-17 02:57 37.28147 120.40319 18974 ft 387 kts 201°
2026-04-17 02:57 37.25554 120.39342 18417 ft 384 kts 201°
2026-04-17 02:57 37.22980 120.38372 17889 ft 381 kts 201°
2026-04-17 02:57 37.20469 120.37427 17378 ft 378 kts 201°
2026-04-17 02:58 37.17930 120.36471 16844 ft 376 kts 201°
2026-04-17 02:58 37.15390 120.35516 16316 ft 374 kts 201°
2026-04-17 02:58 37.12889 120.34576 15748 ft 372 kts 200°
2026-04-17 02:58 37.10381 120.33634 15219 ft 370 kts 201°
2026-04-17 02:59 37.07919 120.32711 14717 ft 368 kts 200°
2026-04-17 02:59 37.05448 120.31784 14198 ft 366 kts 200°
2026-04-17 02:59 37.02978 120.30859 13653 ft 365 kts 200°
2026-04-17 02:59 37.00539 120.29945 13132 ft 364 kts 200°
2026-04-17 03:00 36.98114 120.28982 12606 ft 360 kts 205°
2026-04-17 03:00 36.95937 120.27409 12084 ft 353 kts 222°
2026-04-17 03:00 36.94271 120.25193 11652 ft 343 kts 240°
2026-04-17 03:00 36.93196 120.22581 11280 ft 332 kts 252°
2026-04-17 03:01 36.92354 120.19906 10918 ft 326 kts 255°
2026-04-17 03:01 36.91601 120.17265 10583 ft 321 kts 256°
2026-04-17 03:01 36.90899 120.14609 10219 ft 317 kts 258°
2026-04-17 03:01 36.90236 120.12004 9847 ft 314 kts 258°
2026-04-17 03:02 36.89583 120.09409 9450 ft 313 kts 258°
2026-04-17 03:02 36.88929 120.06804 9068 ft 310 kts 258°
2026-04-17 03:02 36.88280 120.04224 8877 ft 301 kts 258°
2026-04-17 03:02 36.87671 120.01817 8860 ft 287 kts 258°
2026-04-17 03:03 36.87079 119.99465 8749 ft 277 kts 258°
2026-04-17 03:03 36.86507 119.97185 8446 ft 276 kts 258°
2026-04-17 03:03 36.85663 119.95000 8052 ft 286 kts 236°
2026-04-17 03:03 36.84094 119.93404 7756 ft 290 kts 214°
2026-04-17 03:04 36.82357 119.92216 7711 ft 278 kts 211°
2026-04-17 03:04 36.80544 119.91470 7667 ft 269 kts 188°
2026-04-17 03:04 36.78695 119.91479 7631 ft 258 kts 174°
2026-04-17 03:04 36.76911 119.91884 7442 ft 254 kts 166°
2026-04-17 03:05 36.75191 119.92471 7172 ft 254 kts 163°
2026-04-17 03:05 36.73507 119.93103 6958 ft 251 kts 163°
2026-04-17 03:05 36.71818 119.93748 6737 ft 249 kts 163°
2026-04-17 03:05 36.70148 119.94374 6482 ft 250 kts 164°
2026-04-17 03:06 36.68470 119.94967 6265 ft 248 kts 164°
2026-04-17 03:06 36.66786 119.95574 5978 ft 249 kts 164°
2026-04-17 03:06 36.65122 119.96194 5665 ft 253 kts 163°
2026-04-17 03:06 36.63393 119.96851 5337 ft 256 kts 163°
2026-04-17 03:07 36.61671 119.97515 5018 ft 259 kts 163°
2026-04-17 03:07 36.59947 119.98186 4655 ft 255 kts 163°
2026-04-17 03:07 36.58262 119.98847 4338 ft 249 kts 163°
2026-04-17 03:07 36.56652 119.99483 4051 ft 240 kts 163°
2026-04-17 03:08 36.55081 120.00106 3744 ft 230 kts 163°
2026-04-17 03:08 36.53587 120.00701 3456 ft 218 kts 163°
2026-04-17 03:08 36.52161 120.01268 3174 ft 206 kts 163°
2026-04-17 03:08 36.50814 120.01799 2931 ft 197 kts 163°
2026-04-17 03:09 36.49511 120.02310 2669 ft 193 kts 163°
2026-04-17 03:09 36.48241 120.02808 2415 ft 186 kts 163°
2026-04-17 03:09 36.47057 120.03274 2148 ft 166 kts 163°
2026-04-17 03:09 36.45985 120.03695 1959 ft 155 kts 163°
2026-04-17 03:10 36.44968 120.04093 1736 ft 150 kts 163°
2026-04-17 03:10 36.43970 120.04485 1522 ft 146 kts 163°
2026-04-17 03:10 36.43010 120.04861 1316 ft 143 kts 163°
2026-04-17 03:10 36.42045 120.05238 1106 ft 141 kts 163°
2026-04-17 03:11 36.41119 120.05602 909 ft 140 kts 163°
2026-04-17 03:11 36.40178 120.05969 708 ft 139 kts 163°
2026-04-17 03:11 36.39243 120.06316 509 ft 137 kts 163°
2026-04-17 03:11 36.38335 120.06678 321 ft 137 kts 163°
2026-04-17 03:12 36.37426 120.07039 146 ft 135 kts 163°
2026-04-17 03:12 36.36522 120.07402 38 ft 128 kts 164°
2026-04-17 03:12 36.35800 120.07678 48 ft 85 kts 162°
2026-04-17 03:12 36.35374 120.07843 52 ft 40 kts 161°
2026-04-17 03:13 36.35240 120.07899 52 ft 7 kts 161°
2026-04-17 03:13 36.35159 120.07931 53 ft 16 kts 162°
2026-04-17 03:13 36.35034 120.07980 54 ft 20 kts 157°
2026-04-17 03:13 36.34907 120.08070 56 ft 20 kts 141°
2026-04-17 03:14 36.34833 120.08157 58 ft 11 kts 136°
2026-04-17 03:14 36.34819 120.08248 59 ft 12 kts 45°
2026-04-17 03:14 36.34918 120.08236 56 ft 17 kts 339°
2026-04-17 03:14 36.35050 120.08186 53 ft 21 kts 343°
2026-04-17 03:15 36.35150 120.08178 53 ft 15 kts 36°
2026-04-17 03:15 36.35256 120.08201 54 ft 17 kts 341°
2026-04-17 03:15 36.35379 120.08153 54 ft 19 kts 343°
2026-04-17 03:15 36.35498 120.08109 54 ft 12 kts 353°
2026-04-17 03:16 36.35580 120.08152 54 ft 14 kts
2026-04-17 03:16 36.35679 120.08128 54 ft 13 kts 346°
2026-04-17 03:16 36.35744 120.08199 54 ft 15 kts 76°
2026-04-17 03:16 36.35748 120.08222 54 ft 0 kts 77°